Location: Canet
(43.3261°N, 5.3723°E)
Time: 19:09:22
(UTC+00:00)

NOSS 2-1 (C) - Pass Details

Date: 24 January 2021
Orbit: 432 x 1770 km, 63.3° (Epoch: 27 February)

Event Time Altitude Azimuth Distance (km) Brightness Sun altitude
Rises 18:31:41 0° 232° (SW) 2,464 7.7 -20.2°
Reaches altitude 10° 18:33:53 10° 241° (WSW) 1,546 6.6 -20.6°
Maximum altitude 18:37:00 39° 312° (NW) 669 4.0 -21.2°
Enters shadow 18:37:44 33° 346° (NNW) 751 4.0 -21.3°
